Wind_Speed
10 12 12 12 12 13 14 15 15 14 16 15 16 18 18 18 20 19 19 19 19 19 19 19 19 19 19 19 19 20 21 21 23 23 25 26 26 27 28 28 28 28 27 28
9 9 10 12 14 16 15 16 16 15 17 16 15 18 18 19 19 19 19 20 21 20 19 18 18 18 19 21 21 21 22 22 23 24 24 25 26 26 25 26 27 28 28 28
7 8 11 12 14 16 16 14 13 16 16 15 15 16 17 19 19 19 19 21 19 18 19 19 19 19 20 21 22 22 23 23 24 24 25 25 25 25 25 25 25 27 29 29
8 12 12 12 12 13 13 14 15 16 16 14 14 17 18 19 21 20 20 19 19 18 19 20 20 21 21 20 21 22 23 24 25 26 25 25 25 25 25 26 27 28 29 29
8 10 11 11 11 11 13 15 15 15 14 15 16 17 18 21 22 20 20 20 18 18 20 21 22 22 21 21 22 23 24 24 24 24 25 25 25 26 27 28 29 29 29 30
9 9 9 10 11 12 13 14 13 14 15 18 18 19 20 21 20 19 19 19 18 19 20 21 22 23 23 23 23 23 23 23 23 24 25 26 26 27 28 28 29 29 30 30
7 9 9 9 10 12 13 13 13 15 18 18 17 19 20 20 20 20 20 18 18 20 20 21 21 22 23 23 22 23 23 23 24 24 25 25 26 27 28 29 30 30 30 31
8 8 9 9 9 11 12 13 15 16 15 15 16 18 19 17 17 19 19 19 20 22 22 22 22 22 23 22 22 23 24 24 25 25 26 26 28 29 29 30 31 31 31 31
7 7 9 11 11 12 12 13 14 15 15 16 16 16 16 18 18 18 18 19 22 23 23 22 22 23 22 23 23 24 25 25 25 25 26 27 28 29 30 30 31 31 30 30
10 10 10 11 12 12 13 13 14 16 15 15 16 17 18 16 18 18 19 21 21 22 22 23 23 23 23 23 23 24 24 25 25 26 26 26 27 28 28 28 29 29 28 28
11 11 11 12 12 13 14 14 15 16 16 16 17 19 18 18 20 20 18 19 21 22 23 24 24 24 23 24 24 25 25 25 26 26 26 27 28 28 28 28 28 28 28 27
12 12 12 11 12 13 14 14 15 17 18 18 19 22 22 22 21 21 21 20 20 21 22 23 24 24 24 25 25 25 25 26 26 26 26 26 27 27 26 26 26 26 26 25
11 12 12 11 12 12 13 14 16 17 18 19 20 23 24 24 22 19 20 20 20 21 22 23 23 24 24 24 25 25 25 26 26 26 26 26 26 26 26 25 25 25 24 23
13 12 13 12 11 12 13 14 15 17 18 19 22 21 22 22 20 18 18 19 20 21 22 22 23 23 23 24 24 24 25 25 26 25 25 25 26 26 24 23 23 22 22 22
12 11 12 12 11 12 13 14 14 16 16 18 19 20 19 20 19 19 19 19 19 20 21 21 21 22 22 22 22 23 24 24 24 24 24 24 24 24 23 22 22 22 22 21
12 11 11 11 11 12 14 14 16 17 17 17 18 18 18 19 18 19 20 20 19 19 19 19 20 20 20 20 21 21 21 21 21 22 22 21 22 21 21 21 21 20 20 19
11 10 10 10 10 11 13 14 15 16 17 16 16 17 18 17 18 18 18 19 19 18 18 18 18 19 19 19 19 19 19 19 19 19 19 19 19 20 20 20 19 18 17 16
11 9 9 10 10 12 13 13 14 14 15 15 15 15 16 17 17 16 16 18 18 17 17 18 18 18 18 17 17 17 17 17 18 18 18 18 18 18 18 18 17 16 15 15
9 9 10 11 11 13 12 13 13 13 13 13 13 14 14 15 15 14 15 16 16 16 16 17 17 16 15 14 15 15 16 16 17 17 17 17 17 16 16 16 14 13 14 14
9 9 9 11 11 13 12 12 12 13 13 13 11 12 14 13 14 14 14 14 13 14 15 14 14 13 13 14 14 15 15 16 16 16 16 16 15 15 14 13 13 13 13 13
9 10 10 10 11 12 12 11 12 13 13 13 12 12 13 12 12 12 13 13 13 13 13 12 11 12 12 13 13 14 14 15 15 15 15 14 13 12 12 12 12 12 12 12
9 10 9 9 11 12 12 11 11 11 12 12 12 12 12 11 11 11 11 11 11 11 11 10 10 11 11 12 12 13 13 13 13 13 13 12 11 11 11 12 11 12 11 10
9 10 9 8 9 9 10 10 10 10 11 11 11 10 10 10 9 9 9 10 10 10 10 9 10 10 10 11 12 12 13 12 11 11 12 12 11 11 10 10 10 10 10 10
9 9 9 9 8 8 8 8 8 9 8 8 9 8 8 8 8 8 8 9 10 9 9 9 9 9 10 11 11 12 12 10 10 11 11 11 11 10 10 10 9 10 10 9
9 8 8 8 7 7 7 7 7 6 6 6 7 7 7 7 7 7 7 8 9 8 8 8 9 9 9 10 10 11 11 10 10 10 10 10 10 11 10 9 9 9 9 9
8 8 8 8 7 6 7 6 6 6 6 6 6 6 6 6 6 6 7 7 7 7 7 7 8 8 9 9 9 10 10 10 9 9 9 8 9 9 9 9 9 9 9 9
Wind_Direction
207 204 206 203 198 199 215 215 220 233 242 246 253 255 258 262 267 271 274 276 277 280 277 274 278 280 282 284 286 285 286 287 288 289 289 287 285 284 280 281 282 283 281 280
198 208 204 202 211 205 210 215 216 223 236 243 249 258 264 268 269 273 276 279 280 279 279 281 282 283 284 285 286 288 287 287 289 291 291 289 289 289 287 287 286 283 283 282
185 207 214 210 214 209 207 218 223 231 237 249 254 257 259 264 270 274 278 281 280 279 279 282 284 288 288 287 287 288 288 287 289 290 292 291 289 289 289 289 288 286 284 283
204 219 217 211 215 211 215 217 226 232 238 244 256 262 259 262 268 271 275 275 278 280 282 284 285 288 289 289 288 289 290 290 289 290 291 291 290 291 290 289 288 289 287 285
219 222 213 208 210 211 212 224 233 237 242 243 251 261 265 266 264 267 272 271 277 282 284 287 288 289 290 291 292 291 293 294 293 292 292 293 292 292 292 292 290 289 289 287
219 228 221 214 217 222 222 227 233 236 242 248 252 256 258 263 264 268 269 273 279 286 288 287 288 289 290 292 292 292 294 294 293 294 294 294 294 294 294 295 292 291 290 288
223 225 226 217 219 224 222 228 235 242 247 250 254 257 262 262 271 276 278 279 284 287 288 287 289 290 290 291 290 291 294 296 297 298 297 297 297 297 296 296 293 291 291 289
228 225 233 236 236 234 230 233 243 253 258 266 265 259 267 263 270 281 277 277 280 283 285 287 290 292 293 293 293 294 296 297 298 299 299 299 299 298 296 295 294 292 291 291
218 225 229 237 244 241 243 249 252 263 269 272 271 267 268 272 276 274 274 276 278 282 282 286 291 293 296 295 294 296 298 299 300 299 299 299 300 300 298 295 293 292 292 292
219 226 233 233 236 241 244 248 252 256 264 273 276 270 260 267 278 282 281 281 282 284 285 286 289 292 295 297 297 297 299 301 302 300 300 301 302 302 301 298 297 295 296 294
241 239 236 237 240 240 242 243 249 254 256 266 274 278 281 281 283 284 288 284 285 286 285 285 288 292 295 297 298 299 300 301 302 302 302 302 303 302 301 300 299 298 298 296
254 251 245 242 241 240 242 244 248 253 255 258 269 278 282 286 285 283 288 289 287 289 289 288 289 291 293 296 298 299 300 301 303 303 303 304 303 303 303 303 302 299 299 299
257 260 258 250 245 248 248 243 245 251 254 262 266 273 277 281 282 281 287 290 289 292 292 292 291 291 293 295 298 299 300 301 303 303 303 304 307 306 305 304 302 301 299 300
258 258 259 258 258 251 253 254 255 254 257 263 266 270 274 280 282 282 286 289 292 292 291 292 293 293 295 296 298 300 301 302 302 303 303 304 306 308 307 306 305 304 303 303
265 263 263 269 270 265 262 261 266 265 263 264 272 270 276 278 281 284 287 293 293 293 293 294 296 297 298 298 300 301 303 304 304 304 304 304 306 307 309 309 309 309 308 307
270 266 268 270 270 267 266 262 262 263 264 267 271 277 280 281 283 284 286 291 294 296 297 299 300 300 300 300 302 303 306 308 308 308 308 309 310 310 311 311 310 310 309 308
270 270 271 268 267 269 271 271 264 262 266 267 270 277 279 283 286 286 286 288 295 297 298 303 303 302 302 303 305 307 309 311 311 310 310 312 314 313 313 313 312 313 313 314
271 273 270 267 268 270 275 270 268 267 267 268 270 276 282 288 291 287 287 291 298 301 301 302 304 303 302 303 306 310 313 313 312 312 311 313 316 317 318 318 316 313 315 316
271 270 270 269 269 277 275 270 272 271 274 274 274 278 284 292 292 287 291 297 298 304 305 305 307 305 305 306 309 313 315 315 316 317 316 316 318 320 324 328 328 324 325 323
269 272 274 272 268 277 280 277 276 273 277 280 280 285 290 293 293 294 298 303 306 308 309 310 310 309 309 311 314 318 320 321 322 323 322 322 326 329 332 334 335 334 333 333
270 274 276 273 270 275 279 272 273 276 278 283 285 290 295 296 297 297 298 302 309 312 313 314 315 316 317 319 322 326 327 329 330 331 331 331 333 335 336 338 341 343 344 345
270 276 279 277 275 277 277 272 274 276 278 283 286 292 294 294 295 296 301 304 308 312 316 320 323 324 325 326 327 330 332 335 337 339 340 342 342 339 340 342 346 351 355 360
267 273 277 279 281 284 283 279 277 279 282 284 290 293 297 299 295 293 300 313 317 315 313 318 323 326 328 331 333 336 336 336 341 346 350 351 348 345 347 350 354 1 7 8
264 270 274 275 283 285 288 284 284 283 283 286 292 292 299 303 302 298 301 311 317 319 316 320 326 330 331 333 337 340 342 344 347 350 352 355 359 2 5 7 6 9 13 15
263 266 271 274 284 290 292 292 292 291 292 290 294 296 302 306 310 308 305 309 311 318 320 325 329 332 334 337 341 344 347 348 349 353 355 359 3 8 11 12 13 16 19 19
264 266 270 277 287 292 289 294 296 296 293 291 296 302 310 315 315 315 312 318 321 324 328 331 335 338 340 341 342 344 349 353 356 359 1 6 9 13 17 20 23 27 28 30
Height
5831 5834 5837 5839 5842 5846 5849 5852 5854 5855 5855 5856 5857 5856 5857 5857 5856 5857 5856 5856 5857 5857 5856 5855 5855 5855 5854 5854 5853 5852 5851 5850 5849 5847 5845 5844 5842 5841 5840 5839 5838 5837 5836 5835
5832 5833 5836 5839 5841 5844 5848 5849 5852 5853 5853 5854 5854 5854 5854 5854 5854 5854 5853 5853 5853 5853 5852 5851 5851 5850 5850 5850 5849 5848 5847 5846 5844 5842 5840 5838 5837 5835 5834 5833 5832 5831 5830 5829
5831 5835 5835 5837 5840 5842 5845 5848 5850 5851 5851 5851 5852 5853 5852 5851 5851 5851 5851 5849 5848 5848 5848 5848 5847 5846 5846 5845 5845 5843 5842 5841 5839 5838 5836 5834 5832 5830 5829 5828 5826 5825 5824 5822
5831 5833 5834 5836 5839 5841 5843 5846 5847 5849 5850 5850 5851 5851 5850 5848 5847 5847 5847 5844 5844 5845 5845 5844 5844 5843 5842 5841 5840 5839 5838 5836 5834 5833 5831 5829 5827 5825 5823 5822 5820 5819 5817 5815
5830 5831 5832 5835 5837 5839 5842 5844 5844 5845 5847 5848 5848 5848 5848 5846 5844 5843 5843 5841 5841 5841 5841 5840 5840 5839 5838 5837 5835 5834 5832 5831 5829 5827 5825 5823 5821 5819 5818 5816 5814 5812 5810 5808
5830 5831 5832 5834 5836 5838 5839 5841 5842 5843 5844 5845 5845 5845 5844 5841 5840 5840 5839 5838 5837 5837 5837 5836 5835 5834 5833 5832 5831 5829 5828 5826 5824 5821 5819 5817 5815 5813 5811 5809 5807 5805 5803 5801
5829 5830 5831 5833 5835 5836 5837 5839 5840 5840 5840 5840 5841 5840 5839 5837 5837 5836 5834 5834 5833 5833 5833 5831 5830 5829 5829 5828 5826 5824 5823 5820 5818 5816 5814 5811 5809 5807 5805 5803 5800 5798 5796 5794
5827 5829 5830 5831 5832 5834 5834 5837 5838 5837 5836 5836 5836 5835 5835 5831 5832 5832 5830 5830 5830 5830 5830 5828 5827 5826 5825 5823 5821 5819 5817 5815 5813 5810 5808 5805 5803 5800 5798 5795 5793 5791 5789 5787
5826 5828 5829 5830 5830 5832 5833 5834 5835 5835 5833 5832 5832 5832 5829 5827 5828 5828 5828 5828 5828 5827 5825 5824 5823 5822 5820 5818 5816 5814 5812 5809 5807 5804 5802 5799 5796 5793 5791 5788 5786 5784 5781 5779
5824 5826 5827 5828 5829 5830 5831 5832 5832 5832 5831 5830 5830 5827 5825 5824 5824 5823 5823 5824 5823 5823 5821 5820 5819 5817 5815 5813 5811 5809 5806 5803 5801 5798 5795 5793 5789 5786 5783 5781 5778 5776 5774 5772
5822 5823 5825 5825 5826 5828 5829 5829 5829 5829 5828 5828 5827 5826 5821 5821 5821 5821 5820 5820 5819 5818 5817 5816 5814 5812 5810 5808 5806 5803 5801 5798 5795 5792 5789 5786 5783 5780 5777 5774 5771 5769 5767 5765
5819 5820 5821 5822 5823 5823 5825 5825 5826 5826 5825 5825 5824 5824 5819 5819 5818 5817 5816 5816 5815 5814 5812 5810 5809 5807 5805 5803 5801 5798 5796 5793 5790 5786 5783 5780 5777 5773 5770 5768 5765 5763 5760 5758
5817 5818 5818 5819 5821 5821 5821 5821 5821 5821 5821 5821 5820 5820 5816 5815 5814 5813 5812 5811 5810 5809 5807 5806 5804 5802 5800 5798 5795 5793 5790 5787 5784 5781 5778 5775 5771 5768 5765 5762 5759 5757 5754 5752
5815 5815 5816 5816 5816 5816 5817 5817 5817 5817 5816 5816 5815 5814 5812 5810 5810 5809 5807 5807 5806 5804 5803 5801 5799 5797 5795 5792 5790 5787 5784 5781 5778 5775 5772 5769 5766 5763 5760 5757 5754 5751 5748 5746
5811 5812 5812 5812 5812 5813 5813 5814 5813 5813 5812 5811 5810 5808 5807 5806 5806 5805 5803 5802 5801 5799 5798 5796 5794 5792 5790 5787 5784 5782 5779 5776 5773 5770 5767 5764 5761 5758 5755 5752 5749 5746 5744 5741
5808 5809 5809 5809 5810 5810 5810 5810 5809 5809 5808 5807 5806 5804 5803 5801 5801 5801 5799 5798 5796 5795 5793 5791 5789 5787 5785 5782 5780 5777 5775 5772 5769 5766 5763 5760 5757 5754 5751 5748 5745 5742 5739 5737
5806 5806 5806 5806 5806 5806 5807 5806 5805 5805 5804 5803 5802 5801 5799 5798 5797 5796 5795 5794 5792 5791 5789 5787 5785 5783 5780 5778 5775 5773 5770 5768 5765 5762 5759 5756 5753 5750 5747 5744 5741 5738 5736 5733
5803 5802 5803 5803 5803 5803 5805 5802 5801 5800 5799 5798 5797 5797 5795 5794 5793 5792 5791 5790 5789 5787 5785 5783 5780 5778 5776 5774 5772 5769 5767 5764 5761 5758 5756 5753 5750 5747 5744 5740 5737 5735 5732 5730
5800 5800 5799 5799 5799 5799 5799 5798 5797 5796 5795 5794 5794 5794 5793 5791 5790 5788 5788 5787 5786 5783 5781 5779 5776 5774 5772 5771 5769 5766 5764 5761 5758 5755 5752 5749 5747 5744 5741 5738 5735 5732 5730 5728
5798 5797 5797 5796 5796 5795 5796 5795 5794 5794 5792 5791 5790 5790 5789 5788 5787 5786 5784 5782 5781 5780 5778 5776 5773 5772 5770 5768 5766 5764 5761 5758 5755 5752 5749 5746 5744 5741 5739 5736 5734 5731 5729 5726
5796 5795 5794 5793 5792 5792 5792 5792 5792 5792 5791 5789 5788 5787 5786 5785 5785 5784 5782 5780 5779 5777 5775 5773 5771 5770 5768 5766 5764 5761 5759 5756 5753 5750 5747 5744 5742 5740 5738 5735 5733 5730 5728 5725
5793 5792 5791 5791 5791 5792 5789 5789 5789 5789 5787 5787 5786 5785 5784 5783 5782 5781 5780 5778 5776 5775 5773 5771 5770 5768 5766 5764 5762 5760 5757 5754 5752 5749 5746 5743 5741 5739 5736 5734 5732 5729 5727 5725
5791 5791 5789 5790 5790 5788 5787 5786 5786 5785 5785 5785 5784 5783 5781 5781 5780 5779 5778 5776 5775 5773 5772 5770 5769 5767 5765 5763 5761 5758 5756 5753 5751 5748 5746 5743 5740 5738 5736 5734 5732 5730 5727 5725
5789 5788 5788 5787 5786 5785 5785 5784 5784 5783 5783 5782 5782 5781 5780 5779 5778 5777 5776 5775 5773 5772 5770 5769 5768 5766 5764 5762 5760 5758 5755 5753 5750 5748 5745 5743 5741 5738 5736 5734 5732 5730 5728 5726
5787 5786 5786 5786 5785 5784 5783 5782 5782 5781 5781 5780 5780 5779 5778 5777 5777 5776 5775 5774 5772 5770 5769 5768 5767 5765 5763 5762 5759 5757 5755 5752 5750 5748 5746 5743 5741 5739 5737 5735 5733 5731 5729 5727
5785 5785 5785 5785 5784 5783 5782 5781 5780 5780 5779 5779 5779 5778 5777 5776 5775 5774 5773 5772 5770 5769 5768 5767 5766 5764 5763 5761 5759 5757 5755 5752 5750 5748 5746 5744 5742 5740 5738 5736 5734 5732 5731 5729